DMSP 5D-2 F11 DEB, 28326

Orbit data source: Space-Track

DMSP 5D-2 F11 DEB, 28326 is space debris in SSO originally from a launch on Thu, 28 Nov 1991 UTC launched from the Air Force Western Test Range (AFWTR). Debris objects in space refer to the collection of defunct objects orbiting the Earth. Examples of debris include non-operational satellites, rocket bodies, and fragments generated from explosions, collisions, or faulty payload assembly.

Loading next visibility...
Identifier
28326, 1991-082AP
Orbit
SSO
Country
Flag of USUS
Related business
Manufacturer
Unknown
Mission
Spacecraft
Bus & Motor
Unknown
Mass
Unknown
Launch date (UTC)
1991-11-28 (34 years ago)
Launch vehicle
Unknown
Launch site
Air Force Western Test Range (AFWTR)
Object type
Payload
Rocket body
Debris
Shape & HBR
Unknown shape, 0.1 m
Radar Cross Section
Small (<0.1 m²)

Expand to show TLE details & history
Last TLE update: 21 hours ago

TLE from 21 hours ago
0 DMSP 5D-2 F11 DEB
1 28326U 91082AP  25348.73033417  .00007676  00000-0  22234-2 0  9992
2 28326  98.8138  83.2892 0047898 197.4048 162.5502 14.44066084116377
Epoch: 2025-12-14T17:31Z
TLE epoch observation values (Epoch: 2025-12-14T17:31:40.872Z)
Latitude
0.00002°
Longitude
96.72984°
Altitude
780.61 km
Speed
7.447 km/s
True Right ascension
05h 33m 09s
True Declination
0° 00' 00"
Sunlit
Object was in full shadow at epoch
Visualization orbit readout
Latitude
Unknown
Longitude
Unknown
Altitude
Unknown
Speed
Unknown
Apparent Right ascension
Unknown
Apparent Declination
Unknown
Sunlit
N/A
Visualization observer readout
Local Sidereal Time
13:24:38
Azimuth
Unknown
Elevation
Unknown
Doppler factor
Unknown
Orbital elements
Apogee altitude
776.332 km
Perigee altitude
708.122 km
Semi-major axis
7,120.364 km
Eccentricity
0.00479
Inclination
98.8138°
RAAN
83.2892°
Arg. of periapsis
197.4048°
True anomaly
162.71385°
Mean anomaly
162.5502°
Eccentric anomaly
162.63212°
Mean motion
3.61235 °/min
Orbital period
99.66 mins
BSTAR
0.0022234
Loading maneuver chart data...
Computing Atmospheric mass density...

Documentation

Showing up to 5 results
|